"Data set title: Gaging station water sample data. Usage: Event based table used with water chemistry collection from 01-Oct-2017 to 30-Sep-2018",,,,,,,,,,,,
,,,,,,,,,,,,,
"Site","Date","RecNum","SiteID","Flag_SiteID","LOGGERID","PROGID","VNOTCH_INST_0_0_01","Flag_VNOTCH_INST_0_0_01","SAMPLE_INST_0_0_01","Flag_SAMPLE_INST_0_0_01","STAGE_INST_0_0_01","Flag_STAGE_INST_0_0_01"
"","yyyy-MM-dd HH:mm:ss","count","","none","none","none","none","none","count","none","ft","none"
"nominal","datetime","nominal","data","code","nominal","nominal","data","code","data","code","data","code"
"GSWS07_119",2017-10-01 05:22:30,674,107.00,"",119,14316.0,0,"",20,"",0.0510,""
"GSWS07_119",2017-10-01 18:40:30,675,107.00,"",119,14316.0,0,"",21,"",0.0470,""
"GSWS07_119",2017-10-02 07:58:30,676,107.00,"",119,14316.0,0,"",22,"",0.0450,""
"GSWS07_119",2017-10-02 21:16:30,677,107.00,"",119,14316.0,0,"",23,"",0.0430,""
"GSWS07_119",2017-10-03 10:34:30,678,107.00,"",119,14316.0,0,"",24,"",0.0420,""
"GSWS07_119",2017-10-03 23:52:30,679,107.00,"",119,14316.0,0,"",25,"",0.0410,""
"GSWS07_119",2017-10-04 13:10:30,680,107.00,"",119,14316.0,0,"",26,"",0.0410,""
"GSWS07_119",2017-10-05 02:28:30,681,107.00,"",119,14316.0,0,"",27,"",0.0400,""
"GSWS07_119",2017-10-05 15:46:30,682,107.00,"",119,14316.0,0,"",28,"",0.0400,""
"GSWS07_119",2017-10-06 05:04:30,683,107.00,"",119,14316.0,0,"",29,"",0.0400,""
"GSWS07_119",2017-10-06 18:22:30,684,107.00,"",119,14316.0,0,"",30,"",0.0390,""
"GSWS07_119",2017-10-07 07:40:30,685,107.00,"",119,14316.0,0,"",31,"",0.0390,""
"GSWS07_119",2017-10-07 20:58:30,686,107.00,"",119,14316.0,0,"",32,"",0.0470,""
"GSWS07_119",2017-10-08 10:16:30,687,107.00,"",119,14316.0,0,"",33,"",0.0450,""
"GSWS07_119",2017-10-08 23:34:30,688,107.00,"",119,14316.0,0,"",34,"",0.0430,""
"GSWS07_119",2017-10-09 12:52:30,689,107.00,"",119,14316.0,0,"",35,"",0.0410,""
"GSWS07_119",2017-10-10 02:10:30,690,107.00,"",119,14316.0,0,"",36,"",0.0400,""
"GSWS07_119",2017-10-10 15:28:30,691,107.00,"",119,14316.0,0,"",1,"",0.0400,""
"GSWS07_119",2017-10-11 04:46:30,692,107.00,"",119,14316.0,0,"",2,"",0.0400,""
"GSWS07_119",2017-10-11 18:04:30,693,107.00,"",119,14316.0,0,"",3,"",0.0450,""
"GSWS07_119",2017-10-12 07:22:30,694,107.00,"",119,14316.0,0,"",4,"",0.0460,""
"GSWS07_119",2017-10-12 20:40:30,695,107.00,"",119,14316.0,0,"",5,"",0.1320,""
"GSWS07_119",2017-10-13 09:58:30,696,107.00,"",119,14316.0,0,"",6,"",0.1230,""
"GSWS07_119",2017-10-13 23:16:30,697,107.00,"",119,14316.0,0,"",7,"",0.1080,""
"GSWS07_119",2017-10-14 12:34:30,698,107.00,"",119,14316.0,0,"",8,"",0.0850,""
"GSWS07_119",2017-10-15 01:52:30,699,107.00,"",119,14316.0,0,"",9,"",0.0720,""
"GSWS07_119",2017-10-15 15:10:30,700,107.00,"",119,14316.0,0,"",10,"",0.0630,""
"GSWS07_119",2017-10-16 04:28:30,701,107.00,"",119,14316.0,0,"",11,"",0.0590,""
"GSWS07_119",2017-10-16 17:46:30,702,107.00,"",119,14316.0,0,"",12,"",0.0550,""
"GSWS07_119",2017-10-17 07:04:30,703,107.00,"",119,14316.0,0,"",13,"",0.0530,""
"GSWS07_119",2017-10-17 20:22:30,704,107.00,"",119,14316.0,0,"",14,"",0.0510,""
"GSWS07_119",2017-10-18 09:40:30,705,107.00,"",119,14316.0,0,"",15,"",0.0500,""
"GSWS07_119",2017-10-18 22:58:30,706,107.00,"",119,14316.0,0,"",16,"",0.0490,""
"GSWS07_119",2017-10-19 08:28:45,707,107.00,"",119,14316.0,0,"",17,"",0.0490,""
"GSWS07_119",2017-10-19 09:11:00,708,107.00,"",119,14316.0,0,"",18,"",0.0490,""
"GSWS07_119",2017-10-19 12:16:30,709,107.00,"",119,14316.0,0,"",19,"",0.0490,""
"GSWS07_119",2017-10-20 01:34:30,710,107.00,"",119,14316.0,0,"",20,"",0.1050,""
"GSWS07_119",2017-10-20 14:52:30,711,107.00,"",119,14316.0,0,"",21,"",0.1380,""
"GSWS07_119",2017-10-21 04:10:30,712,107.00,"",119,14316.0,0,"",22,"",0.1470,""
"GSWS07_119",2017-10-21 17:28:30,713,107.00,"",119,14316.0,0,"",23,"",0.3390,""
"GSWS07_119",2017-10-22 02:14:45,714,107.00,"",119,14316.0,0,"",24,"",0.3630,""
"GSWS07_119",2017-10-22 06:40:45,715,107.00,"",119,14316.0,0,"",25,"",0.5130,""
"GSWS07_119",2017-10-22 13:18:45,716,107.00,"",119,14316.0,0,"",26,"",0.4560,""
"GSWS07_119",2017-10-23 02:36:45,717,107.00,"",119,14316.0,0,"",27,"",0.2990,""
"GSWS07_119",2017-10-23 15:54:45,718,107.00,"",119,14316.0,0,"",28,"",0.2350,""
"GSWS07_119",2017-10-24 05:12:45,719,107.00,"",119,14316.0,0,"",29,"",0.1910,""
"GSWS07_119",2017-10-24 18:30:45,720,107.00,"",119,14316.0,0,"",30,"",0.1700,""
"GSWS07_119",2017-10-25 07:48:45,721,107.00,"",119,14316.0,0,"",31,"",0.1520,""
"GSWS07_119",2017-10-26 01:23:45,0,107.00,"",119,25798.0,0,"",1,"",0.1370,""
"GSWS07_119",2017-10-26 14:41:45,1,107.00,"",119,25798.0,0,"",2,"",0.1270,""
"GSWS07_119",2017-10-27 03:59:45,2,107.00,"",119,25798.0,0,"",3,"",0.1190,""
"GSWS07_119",2017-10-27 17:17:45,3,107.00,"",119,25798.0,0,"",4,"",0.1130,""
"GSWS07_119",2017-10-28 06:35:45,4,107.00,"",119,25798.0,0,"",5,"",0.1080,""
"GSWS07_119",2017-10-28 19:53:45,5,107.00,"",119,25798.0,0,"",6,"",0.1040,""
"GSWS07_119",2017-10-29 09:11:45,6,107.00,"",119,25798.0,0,"",7,"",0.1020,""
"GSWS07_119",2017-10-29 22:29:45,7,107.00,"",119,25798.0,0,"",8,"",0.0980,""
"GSWS07_119",2017-10-30 11:47:45,8,107.00,"",119,25798.0,0,"",9,"",0.0960,""
"GSWS07_119",2017-10-31 01:05:45,9,107.00,"",119,25798.0,0,"",10,"",0.0940,""
"GSWS07_119",2017-10-31 14:23:45,10,107.00,"",119,25798.0,0,"",11,"",0.0910,""
"GSWS07_119",2017-11-01 03:41:45,11,107.00,"",119,25798.0,0,"",12,"",0.0900,""
"GSWS07_119",2017-11-01 16:59:45,12,107.00,"",119,25798.0,0,"",1,"",0.0860,""
"GSWS07_119",2017-11-02 06:17:45,13,107.00,"",119,25798.0,0,"",2,"",0.0860,""
"GSWS07_119",2017-11-02 19:35:45,14,107.00,"",119,25798.0,0,"",3,"",0.1060,""
"GSWS07_119",2017-11-03 08:53:45,15,107.00,"",119,25798.0,0,"",4,"",0.0990,""
"GSWS07_119",2017-11-03 22:11:45,16,107.00,"",119,25798.0,0,"",5,"",0.0990,""
"GSWS07_119",2017-11-04 11:29:45,17,107.00,"",119,25798.0,0,"",6,"",0.0950,""
"GSWS07_119",2017-11-05 00:47:45,18,107.00,"",119,25798.0,0,"",7,"",0.0940,""
"GSWS07_119",2017-11-05 14:05:45,19,107.00,"",119,25798.0,0,"",8,"",0.0950,""
"GSWS07_119",2017-11-06 03:23:45,20,107.00,"",119,25798.0,0,"",9,"",0.0930,""
"GSWS07_119",2017-11-06 16:41:45,21,107.00,"",119,25798.0,0,"",10,"",0.1010,""
"GSWS07_119",2017-11-07 05:59:45,22,107.00,"",119,25798.0,0,"",11,"",0.0980,""
"GSWS07_119",2017-11-07 19:17:45,23,107.00,"",119,25798.0,0,"",12,"",0.0980,""
"GSWS07_119",2017-11-08 08:35:45,24,107.00,"",119,25798.0,0,"",13,"",0.0980,""
"GSWS07_119",2017-11-08 21:53:45,25,107.00,"",119,25798.0,0,"",14,"",0.1110,""
"GSWS07_119",2017-11-09 11:11:45,26,107.00,"",119,25798.0,0,"",15,"",0.1810,""
"GSWS07_119",2017-11-10 00:29:45,27,107.00,"",119,25798.0,0,"",16,"",0.1960,""
"GSWS07_119",2017-11-10 13:47:45,28,107.00,"",119,25798.0,0,"",17,"",0.2470,""
"GSWS07_119",2017-11-11 03:05:45,29,107.00,"",119,25798.0,0,"",18,"",0.2310,""
"GSWS07_119",2017-11-11 16:23:45,30,107.00,"",119,25798.0,0,"",19,"",0.2300,""
"GSWS07_119",2017-11-12 05:41:45,31,107.00,"",119,25798.0,0,"",20,"",0.2110,""
"GSWS07_119",2017-11-12 18:59:45,32,107.00,"",119,25798.0,0,"",21,"",0.1980,""
"GSWS07_119",2017-11-13 08:17:45,33,107.00,"",119,25798.0,0,"",22,"",0.2250,""
"GSWS07_119",2017-11-13 21:35:45,34,107.00,"",119,25798.0,0,"",23,"",0.2250,""
"GSWS07_119",2017-11-14 10:53:45,35,107.00,"",119,25798.0,0,"",24,"",0.2460,""
"GSWS07_119",2017-11-15 00:11:45,36,107.00,"",119,25798.0,0,"",25,"",0.2380,""
"GSWS07_119",2017-11-15 13:29:45,37,107.00,"",119,25798.0,0,"",26,"",0.2280,""
"GSWS07_119",2017-11-16 02:47:45,38,107.00,"",119,25798.0,0,"",27,"",0.2450,""
"GSWS07_119",2017-11-16 16:05:45,39,107.00,"",119,25798.0,0,"",28,"",0.2450,""
"GSWS07_119",2017-11-17 05:23:45,40,107.00,"",119,25798.0,0,"",29,"",0.2340,""
"GSWS07_119",2017-11-17 18:41:45,41,107.00,"",119,25798.0,0,"",30,"",0.2370,""
"GSWS07_119",2017-11-18 07:59:45,42,107.00,"",119,25798.0,0,"",31,"",0.2280,""
"GSWS07_119",2017-11-18 21:17:45,43,107.00,"",119,25798.0,0,"",32,"",0.2240,""
"GSWS07_119",2017-11-19 10:35:45,44,107.00,"",119,25798.0,0,"",33,"",0.2180,""
"GSWS07_119",2017-11-19 23:53:45,45,107.00,"",119,25798.0,0,"",34,"",0.2450,""
"GSWS07_119",2017-11-20 06:31:45,46,107.00,"",119,25798.0,0,"",35,"",0.3930,""
"GSWS07_119",2017-11-20 10:57:45,47,107.00,"",119,25798.0,0,"",36,"",0.5820,""
"GSWS07_119",2017-11-20 15:23:45,48,107.00,"",119,25798.0,0,"",37,"",0.5760,""
"GSWS07_119",2017-11-20 19:49:45,49,107.00,"",119,25798.0,0,"",38,"",0.5720,""
"GSWS07_119",2017-11-21 00:15:45,50,107.00,"",119,25798.0,0,"",39,"",0.5640,""
"GSWS07_119",2017-11-21 04:41:45,51,107.00,"",119,25798.0,0,"",40,"",0.5410,""
"GSWS07_119",2017-11-21 09:07:45,52,107.00,"",119,25798.0,0,"",41,"",0.5070,""
"GSWS07_119",2017-11-21 12:16:15,53,107.00,"",119,25798.0,0,"",42,"",0.4900,""
"GSWS07_119",2017-11-21 15:45:45,54,107.00,"",119,25798.0,0,"",1,"",0.4750,""
"GSWS07_119",2017-11-21 22:23:45,55,107.00,"",119,25798.0,0,"",2,"",0.4520,""
"GSWS07_119",2017-11-22 05:01:45,56,107.00,"",119,25798.0,0,"",3,"",0.4310,""
"GSWS07_119",2017-11-22 11:39:45,57,107.00,"",119,25798.0,0,"",4,"",0.3940,""
"GSWS07_119",2017-11-22 18:17:45,58,107.00,"",119,25798.0,0,"",5,"",0.3760,""
"GSWS07_119",2017-11-23 00:55:45,59,107.00,"",119,25798.0,0,"",6,"",0.3640,""
"GSWS07_119",2017-11-23 07:33:45,60,107.00,"",119,25798.0,0,"",7,"",0.3930,""
"GSWS07_119",2017-11-23 14:11:45,61,107.00,"",119,25798.0,0,"",8,"",0.4720,""
"GSWS07_119",2017-11-23 20:49:45,62,107.00,"",119,25798.0,0,"",9,"",0.4900,""
"GSWS07_119",2017-11-24 03:27:45,63,107.00,"",119,25798.0,0,"",10,"",0.4810,""
"GSWS07_119",2017-11-24 10:05:45,64,107.00,"",119,25798.0,0,"",11,"",0.4690,""
"GSWS07_119",2017-11-24 16:43:45,65,107.00,"",119,25798.0,0,"",12,"",0.4500,""
"GSWS07_119",2017-11-24 23:21:45,66,107.00,"",119,25798.0,0,"",13,"",0.4290,""
"GSWS07_119",2017-11-25 05:59:45,67,107.00,"",119,25798.0,0,"",14,"",0.3960,""
"GSWS07_119",2017-11-25 12:37:45,68,107.00,"",119,25798.0,0,"",15,"",0.3850,""
"GSWS07_119",2017-11-26 01:55:45,69,107.00,"",119,25798.0,0,"",16,"",0.3340,""
"GSWS07_119",2017-11-26 15:13:45,70,107.00,"",119,25798.0,0,"",17,"",0.3200,""
"GSWS07_119",2017-11-27 04:31:45,71,107.00,"",119,25798.0,0,"",18,"",0.2940,""
"GSWS07_119",2017-11-27 17:49:45,72,107.00,"",119,25798.0,0,"",19,"",0.2710,""
"GSWS07_119",2017-11-28 07:07:45,73,107.00,"",119,25798.0,0,"",20,"",0.2620,""
"GSWS07_119",2017-11-28 20:25:45,74,107.00,"",119,25798.0,0,"",21,"",0.2670,""
"GSWS07_119",2017-11-29 09:43:45,75,107.00,"",119,25798.0,0,"",22,"",0.2620,""
"GSWS07_119",2017-11-29 23:01:45,76,107.00,"",119,25798.0,0,"",23,"",0.2590,""
"GSWS07_119",2017-11-30 12:19:45,77,107.00,"",119,25798.0,0,"",24,"",0.2530,""
"GSWS07_119",2017-12-01 01:37:45,78,107.00,"",119,25798.0,0,"",25,"",0.2410,""
"GSWS07_119",2017-12-01 14:55:45,79,107.00,"",119,25798.0,0,"",26,"",0.2320,""
"GSWS07_119",2017-12-02 04:13:45,80,107.00,"",119,25798.0,0,"",27,"",0.2220,""
"GSWS07_119",2017-12-02 17:31:45,81,107.00,"",119,25798.0,0,"",28,"",0.2190,""
"GSWS07_119",2017-12-03 06:49:45,82,107.00,"",119,25798.0,0,"",29,"",0.2230,""
"GSWS07_119",2017-12-03 20:07:45,83,107.00,"",119,25798.0,0,"",30,"",0.2120,""
"GSWS07_119",2017-12-04 09:25:45,84,107.00,"",119,25798.0,0,"",31,"",0.2010,""
"GSWS07_119",2017-12-04 22:43:45,85,107.00,"",119,25798.0,0,"",32,"",0.1930,""
"GSWS07_119",2017-12-05 12:01:45,86,107.00,"",119,25798.0,0,"",33,"",0.1880,""
"GSWS07_119",2017-12-06 01:19:45,87,107.00,"",119,25798.0,0,"",34,"",0.1840,""
"GSWS07_119",2017-12-06 14:37:45,88,107.00,"",119,25798.0,0,"",35,"",0.1820,""
"GSWS07_119",2017-12-07 03:55:45,89,107.00,"",119,25798.0,0,"",36,"",0.1810,""
"GSWS07_119",2017-12-07 17:13:45,90,107.00,"",119,25798.0,0,"",37,"",0.1780,""
"GSWS07_119",2017-12-08 06:31:45,91,107.00,"",119,25798.0,0,"",38,"",0.1760,""
"GSWS07_119",2017-12-08 19:49:45,92,107.00,"",119,25798.0,0,"",39,"",0.1710,""
"GSWS07_119",2017-12-09 09:07:45,93,107.00,"",119,25798.0,0,"",40,"",0.1670,""
"GSWS07_119",2017-12-09 22:25:45,94,107.00,"",119,25798.0,0,"",41,"",0.1620,""
"GSWS07_119",2017-12-10 11:43:45,95,107.00,"",119,25798.0,0,"",42,"",0.1590,""
"GSWS07_119",2017-12-11 01:01:45,96,107.00,"",119,25798.0,0,"",43,"",0.1560,""
"GSWS07_119",2017-12-11 14:19:45,97,107.00,"",119,25798.0,0,"",44,"",0.1520,""
"GSWS07_119",2017-12-12 03:37:45,98,107.00,"",119,25798.0,0,"",45,"",0.1490,""
"GSWS07_119",2017-12-12 16:55:45,99,107.00,"",119,25798.0,0,"",46,"",0.1460,""
"GSWS07_119",2017-12-13 06:13:45,100,107.00,"",119,25798.0,0,"",47,"",0.1440,""
"GSWS07_119",2017-12-13 14:39:30,101,107.00,"",119,25798.0,0,"",48,"",0.1420,""
"GSWS07_119",2017-12-14 04:35:15,0,107.00,"",119,56466.0,0,"",1,"",0.1410,""
"GSWS07_119",2017-12-14 17:53:15,1,107.00,"",119,56466.0,0,"",2,"",0.1380,""
"GSWS07_119",2017-12-15 07:11:15,2,107.00,"",119,56466.0,0,"",3,"",0.1360,""
"GSWS07_119",2017-12-15 20:29:15,3,107.00,"",119,56466.0,0,"",4,"",0.1350,""
"GSWS07_119",2017-12-16 09:47:15,4,107.00,"",119,56466.0,0,"",5,"",0.1330,""
"GSWS07_119",2017-12-16 23:05:15,5,107.00,"",119,56466.0,0,"",6,"",0.1320,""
"GSWS07_119",2017-12-17 12:23:15,6,107.00,"",119,56466.0,0,"",7,"",0.1310,""
"GSWS07_119",2017-12-18 01:41:15,7,107.00,"",119,56466.0,0,"",8,"",0.1290,""
"GSWS07_119",2017-12-18 14:59:15,8,107.00,"",119,56466.0,0,"",9,"",0.1270,""
"GSWS07_119",2017-12-19 04:17:15,9,107.00,"",119,56466.0,0,"",10,"",0.1260,""
"GSWS07_119",2017-12-19 17:35:15,10,107.00,"",119,56466.0,0,"",11,"",0.1350,""
"GSWS07_119",2017-12-20 06:53:15,11,107.00,"",119,56466.0,0,"",12,"",0.1280,""
"GSWS07_119",2017-12-20 20:11:15,12,107.00,"",119,56466.0,0,"",13,"",0.1250,""
"GSWS07_119",2017-12-21 09:29:15,13,107.00,"",119,56466.0,0,"",14,"",0.1230,""
"GSWS07_119",2017-12-21 22:47:15,14,107.00,"",119,56466.0,0,"",15,"",0.1220,""
"GSWS07_119",2017-12-22 12:05:15,15,107.00,"",119,56466.0,0,"",16,"",0.1220,""
"GSWS07_119",2017-12-23 01:23:15,16,107.00,"",119,56466.0,0,"",17,"",0.1190,""
"GSWS07_119",2017-12-23 14:41:15,17,107.00,"",119,56466.0,0,"",18,"",0.1210,""
"GSWS07_119",2017-12-24 03:59:15,18,107.00,"",119,56466.0,0,"",19,"",0.1190,""
"GSWS07_119",2017-12-24 17:17:15,19,107.00,"",119,56466.0,0,"",20,"",0.1190,""
"GSWS07_119",2017-12-25 06:35:15,20,107.00,"",119,56466.0,0,"",21,"",0.1390,""
"GSWS07_119",2017-12-25 19:53:15,21,107.00,"",119,56466.0,0,"",22,"",0.1380,""
"GSWS07_119",2017-12-26 09:11:15,22,107.00,"",119,56466.0,0,"",23,"",0.1360,""
"GSWS07_119",2017-12-26 22:29:15,23,107.00,"",119,56466.0,0,"",24,"",0.1350,""
"GSWS07_119",2017-12-27 11:47:15,24,107.00,"",119,56466.0,0,"",25,"",0.1340,""
"GSWS07_119",2017-12-28 01:05:15,25,107.00,"",119,56466.0,0,"",26,"",0.1360,""
"GSWS07_119",2017-12-28 14:23:15,26,107.00,"",119,56466.0,0,"",27,"",0.1370,""
"GSWS07_119",2017-12-29 03:41:15,27,107.00,"",119,56466.0,0,"",28,"",0.2390,""
"GSWS07_119",2017-12-29 16:59:15,28,107.00,"",119,56466.0,0,"",29,"",0.2550,""
"GSWS07_119",2017-12-29 23:37:15,29,107.00,"",119,56466.0,0,"",30,"",0.3990,""
"GSWS07_119",2017-12-30 06:15:15,30,107.00,"",119,56466.0,0,"",31,"",0.3860,""
"GSWS07_119",2017-12-30 19:33:15,31,107.00,"",119,56466.0,0,"",32,"",0.3460,""
"GSWS07_119",2017-12-31 08:51:15,32,107.00,"",119,56466.0,0,"",33,"",0.3120,""
"GSWS07_119",2017-12-31 22:09:15,33,107.00,"",119,56466.0,0,"",34,"",0.2790,""
"GSWS07_119",2018-01-01 11:27:15,34,107.00,"",119,56466.0,0,"",35,"",0.2580,""
"GSWS07_119",2018-01-02 00:45:15,35,107.00,"",119,56466.0,0,"",36,"",0.2340,""
"GSWS07_119",2018-01-02 14:03:15,36,107.00,"",119,56466.0,0,"",37,"",0.2360,""
"GSWS07_119",2018-01-03 03:21:15,37,107.00,"",119,56466.0,0,"",38,"",0.2240,""
"GSWS07_119",2018-01-03 16:39:15,38,107.00,"",119,56466.0,0,"",1,"",0.2130,""
"GSWS07_119",2018-01-04 05:57:15,39,107.00,"",119,56466.0,0,"",2,"",0.2050,""
"GSWS07_119",2018-01-04 19:15:15,40,107.00,"",119,56466.0,0,"",3,"",0.1950,""
"GSWS07_119",2018-01-05 08:33:15,41,107.00,"",119,56466.0,0,"",4,"",0.1880,""
"GSWS07_119",2018-01-05 21:51:15,42,107.00,"",119,56466.0,0,"",5,"",0.1840,""
"GSWS07_119",2018-01-06 11:09:15,43,107.00,"",119,56466.0,0,"",6,"",0.1800,""
"GSWS07_119",2018-01-07 00:27:15,44,107.00,"",119,56466.0,0,"",7,"",0.1750,""
"GSWS07_119",2018-01-07 13:45:15,45,107.00,"",119,56466.0,0,"",8,"",0.1710,""
"GSWS07_119",2018-01-08 03:03:15,46,107.00,"",119,56466.0,0,"",9,"",0.1690,""
"GSWS07_119",2018-01-08 16:21:15,47,107.00,"",119,56466.0,0,"",10,"",0.1660,""
"GSWS07_119",2018-01-09 05:39:15,48,107.00,"",119,56466.0,0,"",11,"",0.1750,""
"GSWS07_119",2018-01-09 18:57:15,49,107.00,"",119,56466.0,0,"",12,"",0.1720,""
"GSWS07_119",2018-01-10 08:15:15,50,107.00,"",119,56466.0,0,"",13,"",0.1690,""
"GSWS07_119",2018-01-10 21:33:15,51,107.00,"",119,56466.0,0,"",14,"",0.1680,""
"GSWS07_119",2018-01-11 10:51:15,52,107.00,"",119,56466.0,0,"",15,"",0.2490,""
"GSWS07_119",2018-01-11 17:29:15,53,107.00,"",119,56466.0,0,"",16,"",0.3850,""
"GSWS07_119",2018-01-12 00:07:15,54,107.00,"",119,56466.0,0,"",17,"",0.4020,""
"GSWS07_119",2018-01-12 06:45:15,55,107.00,"",119,56466.0,0,"",18,"",0.3870,""
"GSWS07_119",2018-01-12 13:23:15,56,107.00,"",119,56466.0,0,"",19,"",0.3740,""
"GSWS07_119",2018-01-12 20:01:15,57,107.00,"",119,56466.0,0,"",20,"",0.3650,""
"GSWS07_119",2018-01-13 09:19:15,58,107.00,"",119,56466.0,0,"",21,"",0.3330,""
"GSWS07_119",2018-01-13 22:37:15,59,107.00,"",119,56466.0,0,"",22,"",0.2970,""
"GSWS07_119",2018-01-14 11:55:15,60,107.00,"",119,56466.0,0,"",23,"",0.2780,""
"GSWS07_119",2018-01-15 01:13:15,61,107.00,"",119,56466.0,0,"",24,"",0.2580,""
"GSWS07_119",2018-01-15 14:31:15,62,107.00,"",119,56466.0,0,"",25,"",0.2360,""
"GSWS07_119",2018-01-16 03:49:15,63,107.00,"",119,56466.0,0,"",26,"",0.2370,""
"GSWS07_119",2018-01-16 17:07:15,64,107.00,"",119,56466.0,0,"",27,"",0.2300,""
"GSWS07_119",2018-01-17 06:25:15,65,107.00,"",119,56466.0,0,"",28,"",0.2200,""
"GSWS07_119",2018-01-17 19:43:15,66,107.00,"",119,56466.0,0,"",29,"",0.2110,""
"GSWS07_119",2018-01-18 09:01:15,67,107.00,"",119,56466.0,0,"",30,"",0.2270,""
"GSWS07_119",2018-01-18 22:19:15,68,107.00,"",119,56466.0,0,"",31,"",0.2340,""
"GSWS07_119",2018-01-19 11:37:15,69,107.00,"",119,56466.0,0,"",32,"",0.2230,""
"GSWS07_119",2018-01-20 00:55:15,70,107.00,"",119,56466.0,0,"",33,"",0.2260,""
"GSWS07_119",2018-01-20 14:13:15,71,107.00,"",119,56466.0,0,"",34,"",0.2170,""
"GSWS07_119",2018-01-21 03:31:15,72,107.00,"",119,56466.0,0,"",35,"",0.2130,""
"GSWS07_119",2018-01-21 16:49:15,73,107.00,"",119,56466.0,0,"",36,"",0.2390,""
"GSWS07_119",2018-01-22 06:07:15,74,107.00,"",119,56466.0,0,"",37,"",0.2430,""
"GSWS07_119",2018-01-22 19:25:15,75,107.00,"",119,56466.0,0,"",38,"",0.2450,""
"GSWS07_119",2018-01-23 08:43:15,76,107.00,"",119,56466.0,0,"",39,"",0.2450,""
"GSWS07_119",2018-01-23 12:47:30,77,107.00,"",119,56466.0,0,"",40,"",0.2430,""
"GSWS07_119",2018-01-23 22:01:15,78,107.00,"",119,56466.0,0,"",1,"",0.2970,""
"GSWS07_119",2018-01-24 05:31:15,79,107.00,"",119,56466.0,0,"",2,"",0.3630,""
"GSWS07_119",2018-01-24 12:09:15,80,107.00,"",119,56466.0,0,"",3,"",0.4060,""
"GSWS07_119",2018-01-24 18:47:15,81,107.00,"",119,56466.0,0,"",4,"",0.4290,""
"GSWS07_119",2018-01-25 01:25:15,82,107.00,"",119,56466.0,0,"",5,"",0.4360,""
"GSWS07_119",2018-01-25 08:03:15,83,107.00,"",119,56466.0,0,"",6,"",0.4310,""
"GSWS07_119",2018-01-25 14:41:15,84,107.00,"",119,56466.0,0,"",7,"",0.4190,""
"GSWS07_119",2018-01-25 21:19:15,85,107.00,"",119,56466.0,0,"",8,"",0.4080,""
"GSWS07_119",2018-01-26 03:57:15,86,107.00,"",119,56466.0,0,"",9,"",0.3770,""
"GSWS07_119",2018-01-26 17:15:15,87,107.00,"",119,56466.0,0,"",10,"",0.3330,""
"GSWS07_119",2018-01-27 06:33:15,88,107.00,"",119,56466.0,0,"",11,"",0.3100,""
"GSWS07_119",2018-01-27 13:11:15,89,107.00,"",119,56466.0,0,"",12,"",0.3950,""
"GSWS07_119",2018-01-27 19:49:15,90,107.00,"",119,56466.0,0,"",13,"",0.4100,""
"GSWS07_119",2018-01-28 02:27:15,91,107.00,"",119,56466.0,0,"",14,"",0.4120,""
"GSWS07_119",2018-01-28 09:05:15,92,107.00,"",119,56466.0,0,"",15,"",0.4290,""
"GSWS07_119",2018-01-28 15:43:15,93,107.00,"",119,56466.0,0,"",16,"",0.4410,""
"GSWS07_119",2018-01-28 22:21:15,94,107.00,"",119,56466.0,0,"",17,"",0.4460,""
"GSWS07_119",2018-01-29 04:59:15,95,107.00,"",119,56466.0,0,"",18,"",0.4410,""
"GSWS07_119",2018-01-29 11:37:15,96,107.00,"",119,56466.0,0,"",19,"",0.4310,""
"GSWS07_119",2018-01-29 18:15:15,97,107.00,"",119,56466.0,0,"",20,"",0.4200,""
"GSWS07_119",2018-01-30 00:53:15,98,107.00,"",119,56466.0,0,"",21,"",0.4390,""
"GSWS07_119",2018-01-30 07:31:15,99,107.00,"",119,56466.0,0,"",22,"",0.4380,""
"GSWS07_119",2018-01-30 14:09:15,100,107.00,"",119,56466.0,0,"",23,"",0.4250,""
"GSWS07_119",2018-01-30 20:47:15,101,107.00,"",119,56466.0,0,"",24,"",0.4160,""
"GSWS07_119",2018-01-31 03:25:15,102,107.00,"",119,56466.0,0,"",25,"",0.4090,""
"GSWS07_119",2018-01-31 10:03:15,103,107.00,"",119,56466.0,0,"",26,"",0.4090,""
"GSWS07_119",2018-01-31 16:41:15,104,107.00,"",119,56466.0,0,"",27,"",0.3870,""
"GSWS07_119",2018-01-31 23:19:15,105,107.00,"",119,56466.0,0,"",28,"",0.3660,""
"GSWS07_119",2018-02-01 12:37:15,106,107.00,"",119,56466.0,0,"",29,"",0.3310,""
"GSWS07_119",2018-02-02 01:55:15,107,107.00,"",119,56466.0,0,"",30,"",0.3090,""
"GSWS07_119",2018-02-02 15:13:15,108,107.00,"",119,56466.0,0,"",31,"",0.2920,""
"GSWS07_119",2018-02-03 04:31:15,109,107.00,"",119,56466.0,0,"",32,"",0.2820,""
"GSWS07_119",2018-02-03 17:49:15,110,107.00,"",119,56466.0,0,"",33,"",0.2680,""
"GSWS07_119",2018-02-04 07:07:15,111,107.00,"",119,56466.0,0,"",34,"",0.2580,""
"GSWS07_119",2018-02-04 20:25:15,112,107.00,"",119,56466.0,0,"",35,"",0.2370,""
"GSWS07_119",2018-02-05 09:43:15,113,107.00,"",119,56466.0,0,"",36,"",0.2330,""
"GSWS07_119",2018-02-05 23:01:15,114,107.00,"",119,56466.0,0,"",37,"",0.2400,""
"GSWS07_119",2018-02-06 12:19:15,115,107.00,"",119,56466.0,0,"",38,"",0.2330,""
"GSWS07_119",2018-02-07 01:37:15,116,107.00,"",119,56466.0,0,"",39,"",0.2240,""
"GSWS07_119",2018-02-07 14:55:15,117,107.00,"",119,56466.0,0,"",40,"",0.2110,""
"GSWS07_119",2018-02-08 04:13:15,118,107.00,"",119,56466.0,0,"",41,"",0.2050,""
"GSWS07_119",2018-02-08 17:31:15,119,107.00,"",119,56466.0,0,"",42,"",0.1980,""
"GSWS07_119",2018-02-09 06:49:15,120,107.00,"",119,56466.0,0,"",43,"",0.1940,""
"GSWS07_119",2018-02-09 20:07:15,121,107.00,"",119,56466.0,0,"",44,"",0.1880,""
"GSWS07_119",2018-02-10 09:25:15,122,107.00,"",119,56466.0,0,"",45,"",0.1830,""
"GSWS07_119",2018-02-10 22:43:15,123,107.00,"",119,56466.0,0,"",46,"",0.1780,""
"GSWS07_119",2018-02-11 12:01:15,124,107.00,"",119,56466.0,0,"",47,"",0.1780,""
"GSWS07_119",2018-02-12 01:19:15,125,107.00,"",119,56466.0,0,"",48,"",0.1750,""
"GSWS07_119",2018-02-12 14:37:15,126,107.00,"",119,56466.0,0,"",49,"",0.1690,""
"GSWS07_119",2018-02-13 03:55:15,127,107.00,"",119,56466.0,0,"",50,"",0.1640,""
"GSWS07_119",2018-02-13 17:13:15,128,107.00,"",119,56466.0,0,"",51,"",0.1600,""
"GSWS07_119",2018-02-14 06:31:15,129,107.00,"",119,56466.0,0,"",52,"",0.1580,""
"GSWS07_119",2018-02-14 12:53:30,130,107.00,"",119,56466.0,0,"",53,"",0.1570,""
"GSWS07_119",2018-02-14 19:49:15,131,107.00,"",119,56466.0,0,"",1,"",0.1550,""
"GSWS07_119",2018-02-15 09:07:15,132,107.00,"",119,56466.0,0,"",2,"",0.1520,""
"GSWS07_119",2018-02-15 22:25:15,133,107.00,"",119,56466.0,0,"",3,"",0.1500,""
"GSWS07_119",2018-02-16 11:43:15,134,107.00,"",119,56466.0,0,"",4,"",0.1470,""
"GSWS07_119",2018-02-17 01:01:15,135,107.00,"",119,56466.0,0,"",5,"",0.1480,""
"GSWS07_119",2018-02-17 14:19:15,136,107.00,"",119,56466.0,0,"",6,"",0.1850,""
"GSWS07_119",2018-02-18 03:37:15,137,107.00,"",119,56466.0,0,"",7,"",0.2220,""
"GSWS07_119",2018-02-18 16:55:15,138,107.00,"",119,56466.0,0,"",8,"",0.2060,""
"GSWS07_119",2018-02-19 06:13:15,139,107.00,"",119,56466.0,0,"",9,"",0.1900,""
"GSWS07_119",2018-02-19 19:31:15,140,107.00,"",119,56466.0,0,"",10,"",0.1800,""
"GSWS07_119",2018-02-20 08:49:15,141,107.00,"",119,56466.0,0,"",11,"",0.1760,""